Location: Bothwell
(42.3833°S, 147.0000°E)
Time: 23:57:12
(UTC+10:00)

XW-2D - Visible Passes

Search period start: 01 October 2022 00:00
Search period end: 11 October 2022 01:00
Orbit: 495 x 512 km, 97.5° (Epoch: 01 October)

Date Brightness Start Highest point End Pass type
(mag) Time Alt. Az. Time Alt. Az. Time Alt. Az.
01 Oct ? 04:15:17 10° E 04:16:46 12° ESE 04:18:13 10° SE visible
01 Oct ? 18:49:18 10° S 18:52:51 42° WSW 18:56:21 10° NW visible
03 Oct ? 06:09:12 10° NNE 06:12:51 50° ESE 06:16:32 10° S visible
04 Oct ? 05:50:58 10° NE 05:54:16 30° ESE 05:57:36 10° S visible
04 Oct ? 20:28:05 10° SSW 20:30:24 16° WSW 20:32:44 10° WNW visible
05 Oct ? 05:33:03 10° ENE 05:35:45 19° ESE 05:38:27 10° SSE visible
05 Oct ? 20:08:47 10° SSW 20:11:53 25° WSW 20:14:57 10° NW visible
06 Oct ? 05:15:47 10° E 05:17:14 12° ESE 05:18:43 10° SE visible
06 Oct ? 19:49:45 10° S 19:53:18 41° WSW 19:56:47 10° NW visible
09 Oct ? 05:51:16 10° NE 05:54:33 30° ESE 05:57:52 10° S visible
09 Oct ? 20:28:19 10° SSW 20:30:38 16° WSW 20:32:56 10° WNW visible
10 Oct ? 05:33:17 10° ENE 05:35:57 19° ESE 05:38:38 10° SSE visible
10 Oct ? 20:08:56 10° SSW 20:12:02 25° WSW 20:15:06 10° NW visible
